GW1267 Weather Reports


time (UTC)temp
C
wind
direction
speed
KPH
gust
KPH
rain 1hr
cm
rain 24hr
cm
rain mn
cm
humidity
%
barometer
mb
20260507125052 10 63 4.8 9.7 0.00 0.00 0.00 73 1019.8
20260507124601 10 55 0.0 8.0 0.00 0.00 0.00 73 1019.8
20260507124052 10 51 3.2 8.0 0.00 0.00 0.00 73 1019.9
20260507123552 10 61 1.6 6.4 0.00 0.00 0.00 73 1019.9
20260507123102 10 0 0.0 6.4 0.00 0.00 0.00 73 1019.9
20260507122550 10 62 0.0 6.4 0.00 0.00 0.00 73 1019.8
20260507122057 10 0 1.6 6.4 0.00 0.00 0.00 73 1019.9
20260507121558 10 32 1.6 6.4 0.00 0.00 0.00 73 1020.0
20260507121049 10 0 0.0 0.0 0.00 0.00 0.00 73 1020.0
20260507120549 10 0 0.0 0.0 0.00 0.00 0.00 73 1020.0
20260507120054 10 0 0.0 4.8 0.00 0.00 0.00 73 1020.0
20260507115552 10 0 0.0 4.8 0.00 0.00 0.00 73 1020.1
20260507115051 10 0 1.6 4.8 0.00 0.00 0.00 73 1020.1
20260507114553 11 0 0.0 0.0 0.00 0.00 0.00 73 1020.1
20260507114052 11 0 0.0 8.0 0.00 0.00 0.00 73 1020.2
20260507113552 11 0 0.0 8.0 0.00 0.00 0.00 73 1020.2
20260507113125 11 32 3.2 8.0 0.00 0.00 0.00 73 1020.2
20260507112551 11 31 3.2 11.3 0.00 0.00 0.00 73 1020.2
20260507112054 11 31 3.2 11.3 0.00 0.00 0.00 73 1020.2
20260507111552 11 0 1.6 8.0 0.00 0.00 0.00 73 1020.2
20260507111051 11 0 3.2 9.7 0.00 0.00 0.00 73 1020.2
20260507110552 11 35 4.8 9.7 0.00 0.00 0.00 73 1020.2
20260507110057 11 31 3.2 8.0 0.00 0.00 0.00 73 1020.4
20260507105549 11 39 1.6 8.0 0.00 0.00 0.00 73 1020.3
20260507105051 11 0 4.8 8.0 0.00 0.00 0.00 73 1020.3
20260507104602 11 42 3.2 8.0 0.00 0.00 0.00 73 1020.3
20260507104052 11 0 3.2 8.0 0.00 0.00 0.00 73 1020.4
20260507103551 11 21 4.8 11.3 0.00 0.00 0.00 73 1020.4
20260507103053 11 25 4.8 11.3 0.00 0.00 0.00 73 1020.4
20260507102551 11 51 0.0 9.7 0.00 0.00 0.00 73 1020.4
20260507102048 11 0 4.8 9.7 0.00 0.00 0.00 73 1020.5
20260507101556 11 0 0.0 8.0 0.00 0.00 0.00 73 1020.5
20260507101050 11 12 3.2 8.0 0.00 0.00 0.00 73 1020.6
20260507100548 11 44 3.2 9.7 0.00 0.00 0.00 73 1020.5
20260507100058 11 34 4.8 9.7 0.00 0.00 0.00 73 1020.6
20260507095551 11 63 3.2 9.7 0.00 0.00 0.00 73 1020.6
20260507095050 11 50 3.2 9.7 0.00 0.00 0.00 73 1020.6
20260507094606 11 38 1.6 8.0 0.00 0.00 0.00 73 1020.6
20260507094053 11 26 3.2 9.7 0.00 0.00 0.00 73 1020.6
20260507093551 11 50 4.8 9.7 0.00 0.00 0.00 73 1020.6
20260507093056 11 32 1.6 12.9 0.00 0.00 0.00 73 1020.7
20260507092552 11 0 4.8 12.9 0.00 0.00 0.00 73 1020.7
20260507092051 11 0 3.2 12.9 0.00 0.00 0.00 73 1020.8
20260507091556 11 27 4.8 12.9 0.00 0.00 0.00 73 1020.8
20260507091049 11 43 1.6 12.9 0.00 0.00 0.00 73 1020.8
20260507090546 11 0 0.0 0.0 0.00 0.00 0.00 73 1020.9
20260507090056 11 0 0.0 0.0 0.00 0.00 0.00 73 1020.9
20260507085548 11 0 0.0 0.0 0.00 0.00 0.00 73 1020.9
20260507085049 11 0 0.0 8.0 0.00 0.00 0.00 73 1020.9
20260507084601 11 0 0.0 12.9 0.00 0.00 0.00 73 1020.9
20260507084048 11 0 1.6 12.9 0.00 0.00 0.00 73 1020.9
20260507083551 11 25 4.8 12.9 0.00 0.00 0.00 73 1020.9
20260507083053 11 65 4.8 12.9 0.00 0.00 0.00 73 1020.9
20260507082547 11 30 6.4 12.9 0.00 0.00 0.00 73 1020.9
20260507082049 11 55 1.6 12.9 0.00 0.00 0.00 73 1020.8
20260507081556 11 0 1.6 12.9 0.00 0.00 0.00 73 1020.9
20260507081047 11 49 6.4 12.9 0.00 0.00 0.00 73 1020.8
20260507080549 11 26 6.4 12.9 0.00 0.00 0.00 73 1020.9
20260507075553 11 26 8.0 14.5 0.00 0.00 0.00 73 1020.8
20260507075049 11 51 4.8 12.9 0.00 0.00 0.00 73 1020.9
20260507074552 11 71 6.4 12.9 0.00 0.00 0.00 73 1020.8
20260507074046 11 45 1.6 11.3 0.00 0.00 0.00 73 1020.8
20260507073549 11 0 4.8 14.5 0.00 0.00 0.00 73 1020.8
20260507073057 11 37 6.4 14.5 0.00 0.00 0.00 73 1020.8
20260507072547 11 34 6.4 17.7 0.00 0.00 0.00 73 1020.8
20260507072049 11 46 8.0 17.7 0.00 0.00 0.00 73 1020.8
20260507071553 11 51 6.4 14.5 0.00 0.00 0.00 73 1020.7
20260507071049 11 66 6.4 14.5 0.00 0.00 0.00 73 1020.8
20260507070549 11 36 6.4 14.5 0.00 0.00 0.00 73 1020.8
20260507070107 12 37 6.4 14.5 0.00 0.00 0.00 73 1020.8
20260507065548 12 41 6.4 16.1 0.00 0.00 0.00 73 1020.8
20260507065049 12 360 6.4 16.1 0.00 0.00 0.00 73 1020.9
20260507064605 12 13 6.4 16.1 0.00 0.00 0.00 73 1020.8
20260507064050 12 53 8.0 16.1 0.00 0.00 0.00 73 1020.9
20260507063551 12 48 8.0 16.1 0.00 0.00 0.00 73 1020.9
20260507063058 12 17 9.7 16.1 0.00 0.00 0.00 73 1020.9
20260507062550 12 34 8.0 16.1 0.00 0.00 0.00 73 1020.9
20260507062050 12 26 6.4 19.3 0.00 0.00 0.00 73 1020.9
20260507061557 12 26 8.0 19.3 0.00 0.00 0.00 73 1020.8
20260507061049 12 30 9.7 19.3 0.00 0.00 0.00 73 1020.9
20260507060551 12 20 8.0 17.7 0.00 0.00 0.00 73 1020.9
20260507055549 12 42 4.8 16.1 0.00 0.00 0.00 73 1020.7
20260507055050 12 41 6.4 22.5 0.00 0.00 0.00 73 1020.8
20260507054558 12 30 11.3 22.5 0.00 0.00 0.00 73 1020.8
20260507054053 12 49 9.7 20.9 0.00 0.00 0.00 73 1020.7
20260507053551 12 67 9.7 20.9 0.00 0.00 0.00 73 1020.8
20260507053057 12 30 9.7 16.1 0.00 0.00 0.00 73 1020.8
20260507052549 12 53 4.8 14.5 0.00 0.00 0.00 73 1020.8
20260507052049 12 38 4.8 17.7 0.00 0.00 0.00 73 1020.7
20260507051600 12 352 6.4 22.5 0.00 0.00 0.00 73 1020.7
20260507051046 13 5 11.3 25.7 0.00 0.00 0.00 73 1020.7
20260507050553 13 20 9.7 25.7 0.00 0.00 0.00 73 1020.7
20260507050109 13 13 14.5 22.5 0.00 0.00 0.00 73 1020.7
20260507045548 13 19 12.9 22.5 0.00 0.00 0.00 72 1020.6
20260507045047 13 19 14.5 22.5 0.00 0.00 0.00 72 1020.6
20260507044557 13 11 14.5 24.1 0.00 0.00 0.00 72 1020.5
20260507044052 13 30 14.5 29.0 0.00 0.00 0.00 72 1020.5
20260507043549 13 35 14.5 29.0 0.00 0.00 0.00 72 1020.5
20260507043057 13 19 9.7 20.9 0.00 0.00 0.00 72 1020.5
20260507042550 13 9 9.7 22.5 0.00 0.00 0.00 72 1020.4
20260507042049 13 43 8.0 22.5 0.00 0.00 0.00 72 1020.4
20260507041553 13 360 14.5 22.5 0.00 0.00 0.00 72 1020.4
20260507041048 14 26 8.0 17.7 0.00 0.00 0.00 73 1020.3
20260507040549 14 28 9.7 17.7 0.00 0.00 0.00 73 1020.3
20260507040058 14 25 9.7 17.7 0.00 0.00 0.00 72 1020.2
20260507035553 14 16 9.7 17.7 0.00 0.00 0.00 72 1020.1
20260507035049 14 5 8.0 14.5 0.00 0.00 0.00 72 1020.1
20260507034558 14 18 4.8 17.7 0.00 0.00 0.00 72 1020.0
20260507034048 14 21 6.4 17.7 0.00 0.00 0.00 72 1020.0
20260507033549 14 43 9.7 17.7 0.00 0.00 0.00 72 1019.8
20260507033053 15 18 8.0 12.9 0.00 0.00 0.00 72 1019.8
20260507032550 15 32 0.0 14.5 0.00 0.00 0.00 72 1019.8
20260507032048 15 9 4.8 14.5 0.00 0.00 0.00 72 1019.6
20260507031554 15 19 4.8 9.7 0.00 0.00 0.00 72 1019.6
20260507031052 15 5 6.4 12.9 0.00 0.00 0.00 72 1019.6
20260507030550 15 352 3.2 14.5 0.00 0.00 0.00 72 1019.5
20260507030056 15 18 4.8 16.1 0.00 0.00 0.00 71 1019.4
20260507025553 15 40 6.4 16.1 0.00 0.00 0.00 71 1019.4
20260507025049 16 38 8.0 14.5 0.00 0.00 0.00 71 1019.3
20260507024552 16 61 6.4 14.5 0.00 0.00 0.00 71 1019.3
20260507024100 16 42 6.4 16.1 0.00 0.00 0.00 70 1019.2
20260507023555 16 16 4.8 19.3 0.00 0.00 0.00 70 1019.2
20260507023053 16 15 9.7 19.3 0.00 0.00 0.00 70 1019.3
20260507022549 16 40 11.3 19.3 0.00 0.00 0.00 70 1019.2
20260507022051 16 12 11.3 19.3 0.00 0.00 0.00 70 1019.3
20260507021605 16 13 11.3 22.5 0.00 0.00 0.00 70 1019.2
20260507021052 16 352 11.3 22.5 0.00 0.00 0.00 70 1019.3
20260507020551 17 360 6.4 17.7 0.00 0.00 0.00 70 1019.4
20260507020052 17 360 4.8 17.7 0.00 0.00 0.00 70 1019.2
20260507015549 17 360 9.7 17.7 0.00 0.00 0.00 68 1019.4
20260507015048 18 16 3.2 12.9 0.00 0.00 0.00 66 1019.2
20260507014557 19 0 0.0 0.0 0.00 0.00 0.00 65 1019.1
20260507014052 19 0 0.0 0.0 0.00 0.00 0.00 64 1019.1
20260507013548 19 0 0.0 0.0 0.00 0.00 0.00 63 1019.0
20260507013054 19 0 0.0 0.0 0.00 0.00 0.00 64 1019.0
20260507012552 19 0 0.0 0.0 0.00 0.00 0.00 63 1018.9
20260507012051 19 0 0.0 4.8 0.00 0.00 0.00 64 1019.0
20260507011558 19 0 0.0 4.8 0.00 0.00 0.00 64 1019.1
20260507011052 19 0 0.0 6.4 0.00 0.00 0.00 64 1019.2
20260507010548 19 0 0.0 6.4 0.00 0.00 0.00 65 1019.2
20260507010055 20 252 0.0 6.4 0.00 0.00 0.00 63 1019.2
20260507005551 20 0 0.0 1.6 0.00 0.00 0.00 63 1019.2
20260507005048 20 0 0.0 1.6 0.00 0.00 0.00 62 1019.2
20260507004557 20 0 0.0 1.6 0.00 0.00 0.00 64 1019.1
20260507004050 20 0 0.0 1.6 0.00 0.00 0.00 63 1019.2
20260507003549 20 0 0.0 6.4 0.00 0.00 0.00 62 1019.2
20260507003053 20 0 0.0 9.7 0.00 0.00 0.00 61 1019.3
20260507002548 20 0 1.6 9.7 0.00 0.00 0.00 62 1019.3
20260507002049 20 0 1.6 9.7 0.00 0.00 0.00 63 1019.3
20260507001553 20 311 0.0 11.3 0.00 0.00 0.00 63 1019.4
20260507001048 20 0 0.0 11.3 0.00 0.00 0.00 61 1019.4
20260507000549 20 0 0.0 8.0 0.00 0.00 0.00 64 1019.3
20260507000057 20 240 0.0 8.0 0.00 0.00 0.00 64 1019.3
20260506235547 19 0 0.0 11.3 0.00 0.00 0.00 65 1019.2
20260506235048 19 0 1.6 11.3 0.00 0.00 0.00 64 1019.2
20260506234624 19 209 3.2 9.7 0.00 0.00 0.00 66 1019.2
20260506234053 19 0 0.0 8.0 0.00 0.00 0.00 65 1019.3
20260506233549 19 30 0.0 8.0 0.00 0.00 0.00 67 1019.4
20260506233056 18 0 0.0 8.0 0.00 0.00 0.00 66 1019.4
20260506232554 18 0 1.6 8.0 0.00 0.00 0.00 65 1019.4
20260506232048 18 0 0.0 8.0 0.00 0.00 0.00 66 1019.4
20260506231555 18 0 0.0 14.5 0.00 0.00 0.00 67 1019.5
20260506231052 18 0 3.2 14.5 0.00 0.00 0.00 67 1019.5
20260506230555 18 0 0.0 9.7 0.00 0.00 0.00 66 1019.6
20260506230058 18 0 0.0 9.7 0.00 0.00 0.00 69 1019.7
20260506225550 17 342 1.6 12.9 0.00 0.00 0.00 69 1019.7
20260506225051 17 0 6.4 12.9 0.00 0.00 0.00 68 1019.8
20260506224553 17 0 1.6 8.0 0.00 0.00 0.00 69 1019.8
20260506224050 17 0 0.0 6.4 0.00 0.00 0.00 70 1019.8
20260506223555 17 0 0.0 11.3 0.00 0.00 0.00 69 1019.9
20260506223100 17 0 0.0 11.3 0.00 0.00 0.00 69 1020.0
20260506222550 18 234 1.6 11.3 0.00 0.00 0.00 67 1020.0
20260506222052 18 0 0.0 11.3 0.00 0.00 0.00 69 1020.1
20260506221555 18 0 0.0 11.3 0.00 0.00 0.00 69 1020.1
20260506221052 18 0 1.6 9.7 0.00 0.00 0.00 69 1020.0
20260506220551 17 0 0.0 9.7 0.00 0.00 0.00 69 1019.9
20260506220056 17 0 0.0 9.7 0.00 0.00 0.00 70 1019.9
20260506215550 17 0 0.0 8.0 0.00 0.00 0.00 70 1020.0
20260506215051 17 0 0.0 6.4 0.00 0.00 0.00 70 1020.1
20260506214557 17 0 0.0 0.0 0.00 0.00 0.00 71 1020.2
20260506214051 17 0 0.0 6.4 0.00 0.00 0.00 71 1020.2
20260506213552 16 0 0.0 6.4 0.00 0.00 0.00 71 1020.3
20260506213052 16 0 1.6 9.7 0.00 0.00 0.00 71 1020.4
20260506212550 16 0 0.0 14.5 0.00 0.00 0.00 72 1020.5
20260506212051 16 234 4.8 20.9 0.00 0.00 0.00 71 1020.4
20260506211558 16 186 1.6 20.9 0.00 0.00 0.00 72 1020.4
20260506211050 16 277 8.0 20.9 0.00 0.00 0.00 71 1020.4
20260506210548 16 0 0.0 9.7 0.00 0.00 0.00 72 1020.4
20260506210056 16 0 0.0 12.9 0.00 0.00 0.00 72 1020.4
20260506205551 16 0 3.2 12.9 0.00 0.00 0.00 72 1020.3
20260506205051 16 0 0.0 12.9 0.00 0.00 0.00 72 1020.2
20260506204600 15 178 3.2 12.9 0.00 0.00 0.00 72 1020.3
20260506204052 15 187 6.4 11.3 0.00 0.00 0.00 72 1020.3
20260506203550 15 194 3.2 11.3 0.00 0.00 0.00 72 1020.5
20260506203056 16 0 0.0 0.0 0.00 0.00 0.00 72 1020.6
20260506202554 15 0 0.0 0.0 0.00 0.00 0.00 72 1020.6
20260506202049 15 0 0.0 0.0 0.00 0.00 0.00 72 1020.6
20260506201556 15 0 0.0 0.0 0.00 0.00 0.00 72 1020.7
20260506201048 15 0 0.0 0.0 0.00 0.00 0.00 72 1020.7
20260506200549 15 0 0.0 3.2 0.00 0.00 0.00 72 1020.8
20260506200107 15 0 0.0 6.4 0.00 0.00 0.00 71 1020.7
20260506195549 15 0 0.0 6.4 0.00 0.00 0.00 71 1020.7
20260506195051 15 0 0.0 9.7 0.00 0.00 0.00 71 1020.7
20260506194606 14 194 1.6 9.7 0.00 0.00 0.00 71 1020.7
20260506194047 14 195 3.2 9.7 0.00 0.00 0.00 71 1020.7
20260506193547 15 211 0.0 9.7 0.00 0.00 0.00 71 1020.6
20260506193055 15 0 3.2 9.7 0.00 0.00 0.00 71 1020.6
20260506192547 15 0 1.6 8.0 0.00 0.00 0.00 71 1020.6
20260506192051 15 202 0.0 9.7 0.00 0.00 0.00 71 1020.6
20260506191553 15 0 0.0 16.1 0.00 0.00 0.00 70 1020.5
20260506191048 14 202 4.8 16.1 0.00 0.00 0.00 71 1020.5
20260506190550 13 207 6.4 14.5 0.00 0.00 0.00 71 1020.5
20260506190100 13 196 8.0 14.5 0.00 0.00 0.00 71 1020.6
20260506185548 13 0 6.4 11.3 0.00 0.00 0.00 71 1020.7
20260506185052 13 213 0.0 11.3 0.00 0.00 0.00 71 1020.6
20260506184559 13 234 4.8 11.3 0.00 0.00 0.00 71 1020.7
20260506184050 13 0 0.0 11.3 0.00 0.00 0.00 71 1020.6
20260506183551 13 219 3.2 12.9 0.00 0.00 0.00 71 1020.6
20260506183105 13 220 4.8 12.9 0.00 0.00 0.00 71 1020.6
20260506182548 13 257 3.2 11.3 0.00 0.00 0.00 71 1020.6
20260506182047 13 299 1.6 11.3 0.00 0.00 0.00 71 1020.7
20260506181559 13 265 1.6 11.3 0.00 0.00 0.00 71 1020.6
20260506181047 13 0 3.2 12.9 0.00 0.00 0.00 71 1020.7
20260506180552 13 184 1.6 12.9 0.00 0.00 0.00 71 1020.7
20260506180057 13 0 3.2 9.7 0.00 0.00 0.00 71 1020.7
20260506175548 13 204 3.2 9.7 0.00 0.00 0.00 72 1020.5
20260506175047 13 0 1.6 8.0 0.00 0.00 0.00 71 1020.5
20260506174549 13 0 0.0 6.4 0.00 0.00 0.00 71 1020.5
20260506174048 13 0 0.0 11.3 0.00 0.00 0.00 71 1020.5
20260506173551 13 0 1.6 11.3 0.00 0.00 0.00 71 1020.6
20260506173108 13 261 0.0 12.9 0.00 0.00 0.00 70 1020.7
20260506172548 13 0 0.0 12.9 0.00 0.00 0.00 70 1020.5
20260506172049 13 0 3.2 12.9 0.00 0.00 0.00 70 1020.6
20260506171602 13 0 4.8 9.7 0.00 0.00 0.00 70 1020.5
20260506171048 12 0 1.6 9.7 0.00 0.00 0.00 70 1020.4
20260506170549 13 202 3.2 9.7 0.00 0.00 0.00 69 1020.4
20260506170056 12 0 0.0 8.0 0.00 0.00 0.00 68 1020.4
20260506165549 12 0 0.0 12.9 0.00 0.00 0.00 67 1020.5
20260506165049 12 219 6.4 12.9 0.00 0.00 0.00 68 1020.5
20260506164558 12 290 1.6 6.4 0.00 0.00 0.00 68 1020.5
20260506164048 12 278 0.0 9.7 0.00 0.00 0.00 68 1020.3
20260506163550 12 278 1.6 9.7 0.00 0.00 0.00 68 1020.4
20260506163107 12 206 4.8 9.7 0.00 0.00 0.00 68 1020.2
20260506162549 12 214 4.8 16.1 0.00 0.00 0.00 68 1020.2
20260506162050 12 0 1.6 16.1 0.00 0.00 0.00 68 1020.2
20260506161605 12 199 6.4 16.1 0.00 0.00 0.00 69 1020.1
20260506161047 12 200 8.0 16.1 0.00 0.00 0.00 68 1019.9
20260506160551 12 202 6.4 12.9 0.00 0.00 0.00 68 1019.6
20260506155552 12 199 3.2 9.7 0.00 0.00 0.00 64 1019.9
20260506155050 12 196 1.6 9.7 0.00 0.00 0.00 65 1020.3
20260506154601 12 0 0.0 12.9 0.00 0.00 0.00 64 1020.3
20260506154049 12 0 0.0 12.9 0.00 0.00 0.00 63 1020.3
20260506153550 12 0 3.2 11.3 0.00 0.00 0.00 64 1020.3
20260506153100 12 220 1.6 12.9 0.00 0.00 0.00 63 1020.4
20260506152549 12 0 0.0 12.9 0.00 0.00 0.00 62 1020.4
20260506152050 12 219 0.0 12.9 0.00 0.00 0.00 62 1020.5
20260506151608 12 0 4.8 12.9 0.00 0.00 0.00 63 1020.4
20260506151050 12 257 1.6 11.3 0.00 0.00 0.00 63 1020.4
20260506150550 12 233 3.2 14.5 0.00 0.00 0.00 64 1020.3
20260506150056 12 311 6.4 14.5 0.00 0.00 0.00 65 1020.4
20260506145548 12 0 0.0 9.7 0.00 0.00 0.00 64 1020.3
20260506145047 12 0 0.0 9.7 0.00 0.00 0.00 64 1020.1
20260506144603 12 0 0.0 0.0 0.00 0.00 0.00 62 1019.8
20260506144047 12 0 0.0 4.8 0.00 0.00 0.00 61 1019.5
20260506143549 12 0 0.0 6.4 0.00 0.00 0.00 60 1019.4
20260506143100 12 0 1.6 6.4 0.00 0.00 0.00 61 1019.4
20260506142551 12 0 0.0 0.0 0.00 0.00 0.00 61 1019.3
20260506142049 12 0 0.0 4.8 0.00 0.00 0.00 60 1019.3
20260506141554 12 0 0.0 4.8 0.00 0.00 0.00 61 1019.4
20260506141048 12 0 1.6 4.8 0.00 0.00 0.00 61 1019.4
20260506140652 12 0 0.0 0.0 0.00 0.00 0.00 60 1019.3
20260506140550 12 0 0.0 0.0 0.00 0.00 0.00 60 1019.3
20260506135548 12 0 0.0 6.4 0.00 0.00 0.00 60 1019.4
20260506135049 11 0 0.0 6.4 0.00 0.00 0.00 60 1019.3
20260506134553 11 195 3.2 6.4 0.00 0.00 0.00 61 1019.2
20260506134050 12 195 1.6 6.4 0.00 0.00 0.00 61 1019.0
20260506133549 12 195 1.6 6.4 0.00 0.00 0.00 62 1019.1
20260506133056 12 194 1.6 4.8 0.00 0.00 0.00 62 1019.0
20260506132548 12 0 0.0 4.8 0.00 0.00 0.00 62 1019.0
20260506132047 12 195 0.0 0.0 0.00 0.00 0.00 63 1019.1
20260506131557 12 0 0.0 0.0 0.00 0.00 0.00 62 1019.1
20260506131050 12 0 0.0 4.8 0.00 0.00 0.00 62 1019.1
20260506130550 12 0 0.0 6.4 0.00 0.00 0.00 63 1018.9
20260506130133 12 0 1.6 9.7 0.00 0.00 0.00 63 1018.9
20260506125548 12 194 1.6 9.7 0.00 0.00 0.00 64 1018.9